Norfolk, NE

4:49 PM CST on January 18, 2017 (GMT -0600)
Stefan Memorial

Weather History for KOFK - October, 2011

Change the Weather History Date:

Tuesday, October 18, 2011

  Actual Average Record
Temperature  
Mean Temperature 45 °F 50 °F  
Max Temperature 54 °F 63 °F 89 °F (2005)
Min Temperature 35 °F 38 °F 18 °F (1972)
Degree Days  
Heating Degree Days 20 15  
Month to date heating degree days 110 213  
Since 1 July heating degree days 304 355  
Cooling Degree Days 0 0  
Month to date cooling degree days 33 8  
Year to date cooling degree days 1059 914  
Moisture  
Dew Point 28 °F    
Average Humidity 54    
Maximum Humidity 76    
Minimum Humidity 32    
Precipitation  
Precipitation 0.00 in 0.07 in 1.62 in (1904)
Month to date precipitation 1.08 1.36  
Year to date precipitation 20.16 24.58  
Snow  
Snow 0.00 in 0.00 in - ()
Month to date snowfall 0.0 0.2  
Since 1 July snowfall 0.0 0.2  
Snow Depth 0.00 in    
Sea Level Pressure  
Sea Level Pressure 30.12 in    
Wind  
Wind Speed 15 mph (NNW)    
Max Wind Speed 30 mph    
Max Gust Speed 37 mph    
Visibility 10 miles    
Events      
T = Trace of Precipitation, MM = Missing Value Source: NWS Daily Summary

Daily Weather History Graph

Daily Weather History Graph

Search for Another Location

Airport or City:

Trip Planner

Search our weather history database for the weather conditions in past years. The results will help you decide how hot, cold, wet, or windy it might be!

Date:

Astronomy

Oct. 18, 2011 Rise Set
Actual Time 7:45 AM CDT 6:43 PM CDT
Civil Twilight 7:17 AM CDT 7:11 PM CDT
Nautical Twilight 6:44 AM CDT 7:44 PM CDT
Astronomical Twilight 6:12 AM CDT 8:16 PM CDT
Moon 11:22 PM CDT 1:40 PM CDT
Length of Visible Light 11h 54m
Length of Day
10h 58m
Waning Gibbous, 64% of the Moon is Illuminated
Oct 18
Waning Gibbous
Oct 19
Last Quarter
Oct 26
New
Nov 2
First Quarter
Nov 10
Full

Hourly Weather History & Observations

Time (CDT) Temp. Windchill Dew Point Humidity Pressure Visibility Wind Dir Wind Speed Gust Speed Precip Events Conditions
12:56 AM 42.1 °F 37.1 °F 35.1 °F 76% 30.05 in 10.0 mi WNW 8.1 mph - N/A   Clear
1:56 AM 43.0 °F 37.2 °F 33.1 °F 68% 30.05 in 10.0 mi NW 10.4 mph - N/A   Clear
2:56 AM 39.9 °F 33.9 °F 30.9 °F 70% 30.06 in 10.0 mi NW 9.2 mph - N/A   Clear
3:56 AM 39.0 °F 32.8 °F 30.0 °F 70% 30.08 in 10.0 mi NW 9.2 mph - N/A   Clear
4:56 AM 37.9 °F 32.1 °F 28.9 °F 70% 30.10 in 10.0 mi WNW 8.1 mph - N/A   Clear
5:56 AM 37.0 °F 29.8 °F 28.9 °F 73% 30.11 in 10.0 mi NW 10.4 mph - N/A   Clear
6:56 AM 36.0 °F 28.5 °F 28.0 °F 73% 30.13 in 10.0 mi NW 10.4 mph - N/A   Clear
7:56 AM 36.0 °F 28.0 °F 28.0 °F 73% 30.14 in 10.0 mi NW 11.5 mph - N/A   Clear
8:56 AM 37.9 °F 28.5 °F 28.9 °F 70% 30.15 in 10.0 mi NNW 17.3 mph 26.5 mph N/A   Clear
9:56 AM 41.0 °F 31.4 °F 28.9 °F 62% 30.17 in 10.0 mi NNW 21.9 mph 29.9 mph N/A   Clear
10:56 AM 44.1 °F 35.2 °F 28.9 °F 55% 30.17 in 10.0 mi NNW 23.0 mph 29.9 mph N/A   Clear
12:56 PM 48.9 °F - 26.1 °F 41% 30.15 in 10.0 mi NNW 24.2 mph 35.7 mph N/A   Clear
1:56 PM 51.1 °F - 25.0 °F 36% 30.14 in 10.0 mi NNW 24.2 mph 35.7 mph N/A   Clear
2:56 PM 52.0 °F - 25.0 °F 35% 30.12 in 10.0 mi NNW 24.2 mph 31.1 mph N/A   Clear
3:56 PM 53.1 °F - 25.0 °F 34% 30.12 in 10.0 mi NNW 23.0 mph 33.4 mph N/A   Clear
4:56 PM 53.1 °F - 24.1 °F 32% 30.11 in 10.0 mi NNW 21.9 mph 27.6 mph N/A   Clear
5:56 PM 52.0 °F - 24.1 °F 34% 30.12 in 10.0 mi NNW 20.7 mph 29.9 mph N/A   Clear
7:56 PM 44.1 °F 39.0 °F 25.0 °F 47% 30.15 in 10.0 mi NNW 9.2 mph - N/A   Clear
8:56 PM 43.0 °F 38.2 °F 25.0 °F 49% 30.14 in 10.0 mi NNW 8.1 mph - N/A   Partly Cloudy
9:56 PM 44.1 °F 39.0 °F 26.1 °F 49% 30.14 in 10.0 mi North 9.2 mph - N/A   Mostly Cloudy
10:56 PM 39.0 °F 33.4 °F 26.1 °F 60% 30.15 in 10.0 mi NNW 8.1 mph - N/A   Clear
11:56 PM 37.0 °F 31.0 °F 25.0 °F 62% 30.15 in 10.0 mi NNW 8.1 mph - N/A   Clear